STARLINK-35385, 65906

Orbit data source: Space-Track

STARLINK-35385, 65906 is a payload satellite owned by SpaceX/Seattle (US) in LEO that was launched on Tue, 07 Oct 2025 UTC via an FALCON 9 launch vehicle from the Air Force Eastern Test Range (AFETR). Payload-class satellites include a variety of spacecraft equipped with specific instruments for various scientific and technological missions. These include communications satellites like Starlink; space stations such as the ISS; scientific satellites like the Hubble; Earth observation satellites from companies like Planet Labs, Umbra, and HawkEye 360; GPS; miniature CubeSats for education and research; and military/defense satellites.

Loading next visibility...
Identifier
65906, 2025-224AA
Orbit
LEO
Country
Flag of USUS
Related business
Manufacturer
SpaceX/Seattle
Mission
Operational Commercial Communications
Bus & Motor
STARLINK V2MO, Unknown motor
Mass
575 kg wet, ~530 kg dry
Launch date (UTC)
2025-10-07 (4 months ago)
Launch vehicle
FALCON 9
Launch site
Air Force Eastern Test Range (AFETR)
Object type
Payload
Rocket body
Debris
Shape & HBR
Box + 2 Pan, 17.7 m
Radar Cross Section
36.964 m²

Expand to show TLE details & history
Last TLE update: 2 days ago

TLE from 2 days ago
0 STARLINK-35385
1 65906U 25224AA  26021.84560549  .00047851  00000-0  16176-2 0  9991
2 65906  53.1582 228.8277 0001405 112.2243 247.8907 15.30194544 17688
Epoch: 2026-01-21T20:17Z
TLE epoch observation values (Epoch: 2026-01-21T20:17:40.314Z)
Latitude
-0°
Longitude
163.20245°
Altitude
476.493 km
Speed
7.629 km/s
True Right ascension
15h 15m 18s
True Declination
0° 00' 00"
Sunlit
Object was in daylight at epoch
Visualization orbit readout
Latitude
Unknown
Longitude
Unknown
Altitude
Unknown
Speed
Unknown
Apparent Right ascension
Unknown
Apparent Declination
Unknown
Sunlit
N/A
Visualization observer readout
Local Sidereal Time
22:13:27
Azimuth
Unknown
Elevation
Unknown
Doppler factor
Unknown
Orbital elements
Apogee altitude
476.451 km
Perigee altitude
474.525 km
Semi-major axis
6,853.625 km
Eccentricity
0.00014
Inclination
53.1582°
RAAN
228.8277°
Arg. of periapsis
112.2243°
True anomaly
247.87578°
Mean anomaly
247.8907°
Eccentric anomaly
247.88324°
Mean motion
3.82527 °/min
Orbital period
94.11 mins
BSTAR
0.0016176
Loading maneuver chart data...
Computing Atmospheric mass density...
Loading historical data...
Loading historical data...
Loading historical data...
Loading historical data...
Loading historical data...
Loading historical data...
Loading historical data...

Documentation

Showing up to 5 results
|